TimeCST,TemperatureF,Dew PointF,Humidity,Sea Level PressureIn,VisibilityMPH,Wind Direction,Wind SpeedMPH,Gust SpeedMPH,PrecipitationIn,Events,Conditions,WindDirDegrees,DateUTC
12:53 AM,-0.9,-7.1,75,30.43,10.0,SE,3.5,-,N/A,,Partly Cloudy,140,2013-02-21 06:53:00
1:53 AM,-2.0,-7.1,79,30.44,10.0,South,3.5,-,N/A,,Overcast,170,2013-02-21 07:53:00
2:53 AM,1.0,-6.0,72,30.43,10.0,SE,6.9,-,N/A,,Overcast,140,2013-02-21 08:53:00
3:53 AM,-0.4,-7.6,72,30.36,10.0,SE,4.6,-,N/A,,Clear,140,2013-02-21 09:53:00
4:53 AM,-0.0,-6.0,76,30.44,10.0,SE,5.8,-,N/A,,Clear,130,2013-02-21 10:53:00
5:53 AM,-2.0,-7.1,79,30.44,10.0,ESE,4.6,-,N/A,,Mostly Cloudy,120,2013-02-21 11:53:00
6:53 AM,-2.9,-8.0,79,30.42,10.0,ESE,4.6,-,N/A,,Scattered Clouds,110,2013-02-21 12:53:00
7:53 AM,-2.9,-9.0,75,30.43,10.0,East,4.6,-,N/A,,Scattered Clouds,80,2013-02-21 13:53:00
8:53 AM,-2.9,-8.0,79,30.46,10.0,SSE,3.5,-,N/A,,Mostly Cloudy,160,2013-02-21 14:53:00
9:53 AM,3.9,-6.0,64,30.46,10.0,SE,8.1,-,N/A,,Scattered Clouds,140,2013-02-21 15:53:00
10:53 AM,9.0,-2.9,59,30.42,10.0,SSE,10.4,-,N/A,,Scattered Clouds,150,2013-02-21 16:53:00
11:53 AM,10.0,-0.9,61,30.41,10.0,SSE,11.5,-,N/A,,Mostly Cloudy,150,2013-02-21 17:53:00
12:53 PM,12.9,3.0,65,30.40,10.0,SSE,12.7,-,N/A,,Mostly Cloudy,160,2013-02-21 18:53:00
1:53 PM,15.1,5.0,64,30.38,10.0,SSE,10.4,-,N/A,,Mostly Cloudy,150,2013-02-21 19:53:00
2:53 PM,16.0,6.1,65,30.36,10.0,SSE,8.1,-,N/A,,Scattered Clouds,150,2013-02-21 20:53:00
3:53 PM,17.1,6.1,62,30.35,10.0,SSE,5.8,-,N/A,,Mostly Cloudy,150,2013-02-21 21:53:00
4:53 PM,17.1,6.1,62,30.33,10.0,ESE,3.5,-,N/A,,Mostly Cloudy,120,2013-02-21 22:53:00
5:53 PM,16.0,7.0,68,30.34,10.0,ENE,3.5,-,N/A,,Mostly Cloudy,70,2013-02-21 23:53:00
6:53 PM,15.1,7.0,70,30.33,10.0,ENE,4.6,-,N/A,,Overcast,70,2013-02-22 00:53:00
7:53 PM,10.0,3.9,76,30.31,10.0,North,3.5,-,N/A,,Mostly Cloudy,10,2013-02-22 01:53:00
8:53 PM,6.8,3.2,85,30.23,10.0,NNW,4.6,-,N/A,,Mostly Cloudy,340,2013-02-22 02:53:00
9:53 PM,8.1,3.0,80,30.29,10.0,NNW,3.5,-,N/A,,Mostly Cloudy,330,2013-02-22 03:53:00
10:53 PM,7.0,3.0,84,30.26,10.0,North,5.8,-,N/A,,Mostly Cloudy,10,2013-02-22 04:53:00
11:53 PM,6.1,1.0,80,30.24,10.0,North,3.5,-,N/A,,Clear,360,2013-02-22 05:53:00